GSAT-31

Last updated on Sun Jun 21 2026 00:03:07 GMT+0000 (Coordinated Universal Time)

1 44035U 19007B 26171.26850186 .00000120 00000+0 00000+0 0 9997 2 44035 0.0570 256.5598 0001511 112.5506 43.9069 1.00274329 26993
UTC large
Height (km)
Speed (km/s)
/
Latitude / Longitude
Inclination (degrees)
Orbital Period (minutes)
Azimuth
Elevation
Range (km)
Doppler Factor

Next 0 passes for location: London (51.5072 / 0.1276)

No passes found over London.
GSAT-31